Albogasio, Italy

8:09 AM CEST on October 17, 2017 (GMT +0200)
Albogasio

Weather History for 06770 - May, 2013

Change the Weather History Date:

Wednesday, May 22, 2013

  Actual Average Record
Temperature  
Mean Temperature 55 °F -  
Max Temperature 69 °F 70 °F - ()
Min Temperature 41 °F 55 °F - ()
Degree Days  
Heating Degree Days 10    
Growing Degree Days 5 (Base 50)    
Moisture  
Dew Point 43 °F    
Average Humidity 66    
Maximum Humidity 100    
Minimum Humidity 20    
Precipitation  
Precipitation 0.00 in 0.24 in - ()
Sea Level Pressure  
Sea Level Pressure 29.76 in    
Wind  
Wind Speed 3 mph ()    
Max Wind Speed 14 mph    
Max Gust Speed -    
Visibility 4.3 miles    
Events Fog    
T = Trace of Precipitation, MM = Missing Value Source: Averaged Metar Reports

Daily Weather History Graph

Daily Weather History Graph

Search for Another Location

Airport or City:

Trip Planner

Search our weather history database for the weather conditions in past years. The results will help you decide how hot, cold, wet, or windy it might be!

Date:

Astronomy

May. 22, 2013 Rise Set
Actual Time 5:44 AM CEST 8:57 PM CEST
Civil Twilight 5:08 AM CEST 9:33 PM CEST
Nautical Twilight 4:21 AM CEST 10:20 PM CEST
Astronomical Twilight 3:23 AM CEST 11:19 PM CEST
Moon 5:52 PM CEST (5/22) 3:48 AM CEST (5/22)
Length of Visible Light 16h 25m
Length of Day
15h 13m
Waxing Gibbous, 89% of the Moon is Illuminated
May 22
Waxing Gibbous
May 25
Full
May 31
Last Quarter
Jun 8
New
Jun 16
First Quarter

Hourly Weather History & Observations

Time (CEST) Temp. Windchill Dew Point Humidity Pressure Visibility Wind Dir Wind Speed Gust Speed Precip Events Conditions
12:00 AM 47 °F - 45 °F 92% 29.92 in - North 2.3 mph - -  
12:20 AM 44.6 °F - 44.6 °F 100% 29.89 in 3.1 mi Variable 1.2 mph - N/A   Unknown
12:50 AM 42.8 °F - 42.8 °F 100% 29.89 in 0.2 mi Variable 2.3 mph - N/A Fog Fog
1:00 AM 46 °F - 45 °F 96% 29.92 in - North 2.3 mph - -  
1:20 AM 42.8 °F - 42.8 °F 100% 29.89 in 1.1 mi Variable 2.3 mph - N/A   Mist
1:50 AM 44.6 °F - 44.6 °F 100% 29.86 in - Variable 1.2 mph - N/A   Mist
2:20 AM 41.0 °F 39.0 °F 41.0 °F 100% 29.86 in 0.2 mi North 3.5 mph - N/A Fog Fog
2:50 AM 42.8 °F 40.1 °F 42.8 °F 100% 29.86 in 0.1 mi North 4.6 mph - N/A Fog Fog
3:00 AM 45 °F - 44 °F 95% 29.88 in - North 2.3 mph - -  
3:20 AM 41.0 °F 39.0 °F 41.0 °F 100% 29.86 in 0.1 mi North 3.5 mph - N/A Fog Fog
3:50 AM 42.8 °F - 42.8 °F 100% 29.83 in 0.1 mi Variable 1.2 mph - N/A Fog Fog
4:00 AM 44 °F - 44 °F 98% 29.86 in - North 3.5 mph - -  
4:20 AM 42.8 °F - 42.8 °F 100% 29.83 in 0.1 mi Variable 1.2 mph - N/A Fog Fog
4:50 AM 42.8 °F - 42.8 °F 100% 29.83 in 0.1 mi North 2.3 mph - N/A Fog Fog
5:20 AM 42.8 °F 40.1 °F 42.8 °F 100% 29.83 in 0.1 mi North 4.6 mph - N/A Fog Fog
5:50 AM 42.8 °F - 42.8 °F 100% 29.80 in 0.1 mi NNW 2.3 mph - N/A Fog Fog
6:00 AM 44 °F - 43 °F 95% 29.84 in - NNW 3.5 mph - -  
6:20 AM 42.8 °F - 42.8 °F 100% 29.80 in 0.1 mi Variable 1.2 mph - N/A Fog Fog
6:50 AM 42.8 °F - 42.8 °F 100% 29.80 in 0.1 mi Variable 1.2 mph - N/A Fog Fog
7:00 AM 45 °F - 43 °F 92% 29.83 in - NNW 2.3 mph - -  
7:20 AM 42.8 °F - 42.8 °F 100% 29.80 in 0.2 mi Variable 1.2 mph - N/A Fog Fog
7:50 AM 44.6 °F - 44.6 °F 100% 29.80 in 0.2 mi Variable 2.3 mph - N/A Fog Fog
8:20 AM 46.4 °F - 46.4 °F 100% 29.80 in 6.2 mi Variable 2.3 mph - N/A   Scattered Clouds
8:50 AM 48.2 °F - 48.2 °F 100% 29.80 in - Variable 2.3 mph - N/A   Clear
9:00 AM 50 °F - 44 °F 73% 29.81 in - WSW 1.2 mph - -  
9:20 AM 51.8 °F - 48.2 °F 88% 29.80 in - Variable 2.3 mph - N/A   Clear
9:50 AM 53.6 °F - 48.2 °F 82% 29.80 in 6.2 mi Variable 3.5 mph - N/A   Scattered Clouds
10:00 AM 53 °F - 47 °F 73% 29.80 in - SE 2.3 mph - -  
10:20 AM 55.4 °F - 46.4 °F 72% 29.80 in 6.2 mi Variable 3.5 mph - N/A   Scattered Clouds
10:50 AM 57.2 °F - 44.6 °F 63% 29.80 in 6.2 mi Variable 3.5 mph - N/A   Scattered Clouds
11:20 AM 59.0 °F - 48.2 °F 67% 29.77 in 6.2 mi Variable 2.3 mph - N/A   Scattered Clouds
11:50 AM 62.6 °F - 48.2 °F 59% 29.77 in 6.2 mi Variable 1.2 mph - N/A   Scattered Clouds
12:00 PM 58 °F - 48 °F 61% 29.78 in - SE 3.5 mph - -  
12:20 PM 62.6 °F - 46.4 °F 55% 29.77 in 6.2 mi South 3.5 mph - N/A   Scattered Clouds
12:50 PM 64.4 °F - 50.0 °F 59% 29.74 in 6.2 mi Variable 2.3 mph - N/A   Mostly Cloudy
1:00 PM 59 °F - 45 °F 49% 29.76 in - SE 5.8 mph - -  
1:20 PM 64.4 °F - 46.4 °F 52% 29.74 in 6.2 mi Variable 2.3 mph - N/A   Mostly Cloudy
1:50 PM 66.2 °F - 44.6 °F 46% 29.74 in 6.2 mi Variable 2.3 mph - N/A   Mostly Cloudy
2:20 PM 68.0 °F - 46.4 °F 46% 29.71 in 6.2 mi Variable 3.5 mph - N/A   Mostly Cloudy
2:50 PM 68.0 °F - 46.4 °F 46% 29.71 in 6.2 mi Variable 2.3 mph - N/A   Scattered Clouds
3:00 PM 63 °F - 47 °F 45% 29.70 in - SE 3.5 mph - -  
3:20 PM 69.8 °F - 48.2 °F 46% 29.71 in 6.2 mi South 4.6 mph - N/A   Mostly Cloudy
3:50 PM 69.8 °F - 48.2 °F 46% 29.68 in 6.2 mi South 5.8 mph - N/A   Mostly Cloudy
4:00 PM 65 °F - 48 °F 44% 29.68 in - South 3.5 mph - -  
4:20 PM 69.8 °F - 48.2 °F 46% 29.68 in 6.2 mi South 4.6 mph - N/A   Partly Cloudy
4:50 PM 68.0 °F - 50.0 °F 52% 29.68 in 6.2 mi South 5.8 mph - N/A   Mostly Cloudy
5:20 PM 68.0 °F - 44.6 °F 43% 29.65 in 6.2 mi Variable 5.8 mph - N/A   Mostly Cloudy
5:50 PM 68.0 °F - 42.8 °F 40% 29.65 in 6.2 mi North 11.5 mph - N/A   Mostly Cloudy
6:00 PM 69 °F - 40 °F 23% 29.63 in - NE 12.7 mph - -  
6:20 PM 68.0 °F - 41.0 °F 37% 29.65 in 6.2 mi North 11.5 mph - N/A   Mostly Cloudy
6:50 PM 66.2 °F - 39.2 °F 37% 29.65 in 6.2 mi NNE 11.5 mph - N/A   Mostly Cloudy
7:00 PM 67 °F - 36 °F 21% 29.63 in - NE 9.2 mph - -  
7:20 PM 66.2 °F - 37.4 °F 35% 29.65 in 6.2 mi NNE 10.4 mph - N/A   Mostly Cloudy
7:50 PM 66.2 °F - 35.6 °F 32% 29.65 in 6.2 mi NNE 13.8 mph - N/A   Mostly Cloudy
8:20 PM 64.4 °F - 35.6 °F 34% 29.65 in 6.2 mi North 13.8 mph - N/A   Mostly Cloudy
8:50 PM 62.6 °F - 35.6 °F 37% 29.68 in 6.2 mi North 10.4 mph - N/A   Mostly Cloudy
9:00 PM 65 °F - 34 °F 20% 29.66 in - North 12.7 mph - -  
9:20 PM 62.6 °F - 35.6 °F 37% 29.68 in 6.2 mi North 9.2 mph - N/A   Mostly Cloudy
9:50 PM 64.4 °F - 35.6 °F 34% 29.68 in 6.2 mi Variable 5.8 mph - N/A   Mostly Cloudy
10:00 PM 65 °F - 34 °F 20% 29.68 in - NNW 10.4 mph - -  
10:20 PM 62.6 °F - 35.6 °F 37% 29.71 in 6.2 mi North 4.6 mph - N/A   Scattered Clouds
10:50 PM 60.8 °F - 35.6 °F 39% 29.68 in 6.2 mi Variable 4.6 mph - N/A   Mostly Cloudy
11:20 PM 59.0 °F - 35.6 °F 42% 29.68 in 6.2 mi Variable 4.6 mph - N/A   Scattered Clouds
11:50 PM 59.0 °F - 37.4 °F 45% 29.68 in 6.2 mi Variable 2.3 mph - N/A   Scattered Clouds